Location: Adelaide
(34.9285°S, 138.6007°E)
Time: 13:30:22
(UTC+10:30)

Envisat - Pass Details

Date: 24 November 2019
Orbit: 764 x 766 km, 98.1° (Epoch: 05 December)

Event Time Altitude Azimuth Distance (km) Brightness Sun altitude
Rises 20:55:48 0° 181° (S) 3,268 6.8 -9.5°
Reaches altitude 10° 20:58:25 10° 192° (SSW) 2,334 6.2 -9.9°
Maximum altitude 21:02:42 28° 249° (WSW) 1,441 5.4 -10.6°
Drops below altitude 10° 21:06:58 10° 306° (NW) 2,310 5.7 -11.4°
Sets 21:09:33 0° 317° (NW) 3,227 6.3 -11.8°
